weather.gov     
National Weather Service

Terminal Aerodrome Forecast
NWS Homepage
This page is being discontinued on March 12, 2014.
The same data is available at this site. Please update your bookmarks.
Thank you, and we apologize for the inconvenience.
Please send an email to SR-SRH.Webmaster@noaa.gov with any concerns.


Current Version
Previous Version:    01  02  03  04  05  06  07  08  09  10  11  12  13  14  15  16  17  18  19  20  21  22  23  24  25  26  27  28  29  30  
   31  
[Printable]
730
FTUS44 KJAN 242300
TAFHBG
TAF
KHBG 242320Z 2500/2524 17011KT P6SM SCT050 BKN250
     FM250500 18007KT P6SM OVC015
     FM250700 22005KT 6SM BR OVC007
     FM251000 25005KT 1 1/2SM BR OVC007
     FM251200 28005KT 1/4SM FG OVC003
     FM251400 27006KT 6SM BR OVC015
     FM251500 30007KT P6SM SCT050 BKN250=


U.S. Dept. of Commerce
NOAA National Weather Service
1325 East West Highway
Silver Spring, MD 20910
E-mail: w-nws.webmaster@noaa.gov
Page last modified: May 16, 2007
NATIONAL WEATHER SERVICE: for Safety, for Work, for Fun - FOR LIFE